Location: Newark
(22.0000°S, 43.0000°W)
Time: 01:39:55
(UTC+00:00)

X-37B - Visible Passes

Search period start: 30 September 2020 00:00
Search period end: 10 October 2020 00:00
Orbit: 386 x 387 km, 45.0° (Epoch: 18 September)

Date Brightness Start Highest point End Pass type
(mag) Time Alt. Az. Time Alt. Az. Time Alt. Az.
02 Oct 3.5 07:27:52 10° NNE 07:29:38 14° NE 07:31:24 10° E visible
03 Oct 0.6 08:04:16 10° NW 08:07:27 82° SW 08:10:40 10° SE visible
04 Oct 1.9 07:08:08 29° NNE 07:08:57 34° NE 07:11:54 10° ESE visible
05 Oct 1.7 07:45:01 17° W 07:46:55 31° SW 07:49:50 10° SSE visible
06 Oct 2.0 06:49:28 37° SE 06:49:28 37° SE 06:51:33 10° SE visible
07 Oct 2.7 07:26:05 15° SW 07:26:29 15° SW 07:28:27 10° S visible
08 Oct 3.7 06:30:18 12° SSE 06:30:18 12° SSE 06:30:42 10° SSE visible
